Time,TemperatureF,DewpointF,PressureIn,WindDirection,WindDirectionDegrees,WindSpeedMPH,WindSpeedGustMPH,Humidity,HourlyPrecipIn,Conditions,Clouds,dailyrainin,SoftwareType,DateUTC
2013-04-19 00:07:00,52.0,31.0,30.11,ESE,119,1.0,3.0,45,0.00,,,0.00,weatherlink.com 1.10,2013-04-19 04:07:00,
2013-04-19 00:22:00,51.6,32.0,30.10,ESE,119,0.0,1.0,47,0.00,,,0.00,weatherlink.com 1.10,2013-04-19 04:22:00,
2013-04-19 00:37:00,51.2,33.0,30.08,ESE,119,0.0,3.0,50,0.00,,,0.00,weatherlink.com 1.10,2013-04-19 04:37:00,
2013-04-19 00:52:00,51.2,33.0,30.07,ESE,107,0.0,4.0,50,0.00,,,0.00,weatherlink.com 1.10,2013-04-19 04:52:00,
2013-04-19 01:07:00,51.3,34.0,30.06,ENE,69,0.0,3.0,52,0.00,,,0.00,weatherlink.com 1.10,2013-04-19 05:07:00,
2013-04-19 01:22:00,51.2,35.0,30.05,ENE,69,2.0,2.0,55,0.00,,,0.00,weatherlink.com 1.10,2013-04-19 05:22:00,
2013-04-19 01:37:00,51.1,37.0,30.04,SW,227,0.0,7.0,58,0.00,,,0.00,weatherlink.com 1.10,2013-04-19 05:37:00,
2013-04-19 01:52:00,50.9,38.0,30.03,ENE,62,0.0,4.0,62,0.00,,,0.00,weatherlink.com 1.10,2013-04-19 05:52:00,
2013-04-19 02:07:00,50.7,40.0,30.04,SW,235,0.0,6.0,66,0.00,,,0.00,weatherlink.com 1.10,2013-04-19 06:07:00,
2013-04-19 02:22:00,50.9,40.0,30.04,SE,127,1.0,4.0,67,0.00,,,0.00,weatherlink.com 1.10,2013-04-19 06:22:00,
2013-04-19 02:37:00,50.8,41.0,30.03,SE,125,0.0,4.0,69,0.00,,,0.00,weatherlink.com 1.10,2013-04-19 06:37:00,
2013-04-19 02:52:00,50.8,42.0,30.04,ESE,123,0.0,2.0,71,0.00,,,0.00,weatherlink.com 1.10,2013-04-19 06:52:00,
2013-04-19 03:07:00,50.8,42.0,30.03,SE,125,0.0,3.0,73,0.00,,,0.00,weatherlink.com 1.10,2013-04-19 07:07:00,
2013-04-19 03:22:00,50.7,43.0,30.02,ESE,112,1.0,5.0,74,0.00,,,0.00,weatherlink.com 1.10,2013-04-19 07:22:00,
2013-04-19 03:37:00,50.5,43.0,30.01,ESE,112,0.0,1.0,75,0.00,,,0.00,weatherlink.com 1.10,2013-04-19 07:37:00,
2013-04-19 03:52:00,50.5,43.0,30.00,SSE,154,0.0,6.0,76,0.00,,,0.00,weatherlink.com 1.10,2013-04-19 07:52:00,
2013-04-19 04:07:00,50.4,43.0,30.00,SSW,205,0.0,6.0,76,0.00,,,0.00,weatherlink.com 1.10,2013-04-19 08:07:00,
2013-04-19 04:23:00,50.3,43.0,29.99,East,88,1.0,6.0,77,0.00,,,0.00,weatherlink.com 1.10,2013-04-19 08:23:00,
2013-04-19 04:37:00,50.2,44.0,29.99,East,84,0.0,3.0,78,0.00,,,0.00,weatherlink.com 1.10,2013-04-19 08:37:00,
2013-04-19 04:52:00,50.1,44.0,29.97,ENE,67,0.0,7.0,79,0.00,,,0.00,weatherlink.com 1.10,2013-04-19 08:52:00,
2013-04-19 05:07:00,50.1,44.0,29.96,ENE,67,0.0,3.0,80,0.00,,,0.00,weatherlink.com 1.10,2013-04-19 09:07:00,
2013-04-19 05:22:00,50.0,44.0,29.96,ENE,67,0.0,1.0,81,0.00,,,0.00,weatherlink.com 1.10,2013-04-19 09:22:00,
2013-04-19 05:37:00,50.0,45.0,29.96,ENE,67,0.0,0.0,82,0.00,,,0.00,weatherlink.com 1.10,2013-04-19 09:37:00,
2013-04-19 05:52:00,50.0,45.0,29.97,ENE,67,0.0,0.0,82,0.00,,,0.00,weatherlink.com 1.10,2013-04-19 09:52:00,
2013-04-19 06:08:00,49.7,45.0,29.97,ENE,67,0.0,0.0,83,0.00,,,0.00,weatherlink.com 1.10,2013-04-19 10:08:00,
2013-04-19 06:23:00,49.5,45.0,29.97,ENE,67,0.0,0.0,84,0.00,,,0.00,weatherlink.com 1.10,2013-04-19 10:23:00,
2013-04-19 06:38:00,49.5,45.0,29.96,ENE,67,0.0,1.0,84,0.00,,,0.00,weatherlink.com 1.10,2013-04-19 10:38:00,
2013-04-19 06:53:00,49.7,45.0,29.96,ENE,67,0.0,2.0,84,0.00,,,0.00,weatherlink.com 1.10,2013-04-19 10:53:00,
2013-04-19 07:08:00,50.0,46.0,29.96,ENE,67,0.0,1.0,85,0.00,,,0.00,weatherlink.com 1.10,2013-04-19 11:08:00,
2013-04-19 07:23:00,50.3,46.0,29.95,ENE,67,0.0,1.0,85,0.00,,,0.00,weatherlink.com 1.10,2013-04-19 11:23:00,
2013-04-19 07:38:00,50.6,46.0,29.95,ENE,67,1.0,2.0,85,0.00,,,0.00,weatherlink.com 1.10,2013-04-19 11:38:00,
2013-04-19 07:53:00,50.7,46.0,29.95,ENE,67,0.0,0.0,85,0.00,,,0.00,weatherlink.com 1.10,2013-04-19 11:53:00,
2013-04-19 08:08:00,50.6,47.0,29.95,ENE,67,0.0,1.0,86,0.00,,,0.00,weatherlink.com 1.10,2013-04-19 12:08:00,
2013-04-19 08:23:00,50.9,46.0,29.94,NE,43,0.0,2.0,84,0.00,,,0.00,weatherlink.com 1.10,2013-04-19 12:23:00,
2013-04-19 08:38:00,51.3,47.0,29.94,NE,43,0.0,1.0,84,0.00,,,0.00,weatherlink.com 1.10,2013-04-19 12:38:00,
2013-04-19 08:53:00,51.4,46.0,29.94,NE,43,2.0,2.0,83,0.00,,,0.00,weatherlink.com 1.10,2013-04-19 12:53:00,
2013-04-19 09:08:00,51.4,46.0,29.93,NE,43,0.0,1.0,83,0.00,,,0.00,weatherlink.com 1.10,2013-04-19 13:08:00,
2013-04-19 09:23:00,51.8,47.0,29.92,NE,43,0.0,1.0,84,0.00,,,0.00,weatherlink.com 1.10,2013-04-19 13:23:00,
2013-04-19 09:38:00,52.7,48.0,29.91,NE,43,0.0,1.0,84,0.00,,,0.00,weatherlink.com 1.10,2013-04-19 13:38:00,
2013-04-19 09:53:00,53.5,49.0,29.91,North,5,0.0,3.0,83,0.00,,,0.00,weatherlink.com 1.10,2013-04-19 13:53:00,
2013-04-19 10:08:00,54.4,49.0,29.90,North,360,0.0,3.0,82,0.00,,,0.00,weatherlink.com 1.10,2013-04-19 14:08:00,
2013-04-19 10:23:00,55.4,50.0,29.89,North,360,0.0,1.0,81,0.00,,,0.00,weatherlink.com 1.10,2013-04-19 14:23:00,
2013-04-19 10:38:00,56.9,51.0,29.89,North,360,0.0,2.0,81,0.00,,,0.00,weatherlink.com 1.10,2013-04-19 14:38:00,
2013-04-19 10:53:00,59.4,54.0,29.88,SE,137,0.0,5.0,83,0.00,,,0.00,weatherlink.com 1.10,2013-04-19 14:53:00,
2013-04-19 11:08:00,62.0,55.0,29.87,ESE,115,0.0,5.0,78,0.00,,,0.00,weatherlink.com 1.10,2013-04-19 15:08:00,
2013-04-19 11:23:00,65.9,56.0,29.86,SE,135,5.0,10.0,71,0.00,,,0.00,weatherlink.com 1.10,2013-04-19 15:23:00,
2013-04-19 11:39:00,68.2,56.0,29.84,SW,225,3.0,13.0,65,0.00,,,0.00,weatherlink.com 1.10,2013-04-19 15:39:00,
2013-04-19 11:53:00,67.6,56.0,29.84,SSW,210,7.0,19.0,66,0.00,,,0.00,weatherlink.com 1.10,2013-04-19 15:53:00,
2013-04-19 12:08:00,67.7,56.0,29.83,SSE,168,10.0,17.0,66,0.00,,,0.00,weatherlink.com 1.10,2013-04-19 16:08:00,
2013-04-19 12:23:00,67.9,56.0,29.81,SE,131,3.0,16.0,66,0.00,,,0.00,weatherlink.com 1.10,2013-04-19 16:23:00,
2013-04-19 12:38:00,68.9,57.0,29.81,ESE,106,4.0,14.0,65,0.00,,,0.00,weatherlink.com 1.10,2013-04-19 16:38:00,
2013-04-19 12:53:00,69.3,56.0,29.80,SW,214,0.0,15.0,63,0.00,,,0.00,weatherlink.com 1.10,2013-04-19 16:53:00,
2013-04-19 13:08:00,70.7,56.0,29.79,SE,130,3.0,12.0,61,0.00,,,0.00,weatherlink.com 1.10,2013-04-19 17:08:00,
2013-04-19 13:24:00,71.5,57.0,29.78,SW,230,2.0,15.0,61,0.00,,,0.00,weatherlink.com 1.10,2013-04-19 17:24:00,
2013-04-19 13:39:00,71.9,57.0,29.77,SSW,208,6.0,16.0,59,0.00,,,0.00,weatherlink.com 1.10,2013-04-19 17:39:00,
2013-04-19 13:54:00,71.3,57.0,29.76,SW,229,4.0,12.0,60,0.00,,,0.00,weatherlink.com 1.10,2013-04-19 17:54:00,
2013-04-19 14:09:00,70.9,57.0,29.76,South,190,9.0,14.0,61,0.00,,,0.00,weatherlink.com 1.10,2013-04-19 18:09:00,
2013-04-19 14:24:00,71.2,57.0,29.75,SSW,206,1.0,15.0,61,0.00,,,0.00,weatherlink.com 1.10,2013-04-19 18:24:00,
2013-04-19 14:39:00,72.4,58.0,29.73,SE,136,4.0,15.0,60,0.00,,,0.00,weatherlink.com 1.10,2013-04-19 18:39:00,
2013-04-19 14:54:00,72.5,58.0,29.73,WSW,251,3.0,18.0,60,0.00,,,0.00,weatherlink.com 1.10,2013-04-19 18:54:00,
2013-04-19 15:09:00,72.6,58.0,29.73,WNW,300,5.0,12.0,60,0.00,,,0.00,weatherlink.com 1.10,2013-04-19 19:09:00,
2013-04-19 15:24:00,72.3,58.0,29.71,East,98,1.0,14.0,61,0.00,,,0.00,weatherlink.com 1.10,2013-04-19 19:24:00,
2013-04-19 15:39:00,72.8,58.0,29.71,ESE,103,2.0,13.0,61,0.00,,,0.00,weatherlink.com 1.10,2013-04-19 19:39:00,
2013-04-19 15:54:00,72.7,58.0,29.70,ESE,104,4.0,12.0,61,0.00,,,0.00,weatherlink.com 1.10,2013-04-19 19:54:00,
2013-04-19 16:09:00,72.4,59.0,29.70,SSE,165,3.0,10.0,62,0.00,,,0.00,weatherlink.com 1.10,2013-04-19 20:09:00,
2013-04-19 16:24:00,71.9,59.0,29.69,SSE,161,0.0,12.0,63,0.00,,,0.00,weatherlink.com 1.10,2013-04-19 20:24:00,
2013-04-19 16:39:00,72.0,59.0,29.68,SW,216,3.0,11.0,63,0.00,,,0.00,weatherlink.com 1.10,2013-04-19 20:39:00,
2013-04-19 16:54:00,71.9,59.0,29.68,ESE,113,1.0,15.0,65,0.00,,,0.00,weatherlink.com 1.10,2013-04-19 20:54:00,
2013-04-19 17:09:00,70.7,60.0,29.67,SSW,208,4.0,9.0,69,0.00,,,0.00,weatherlink.com 1.10,2013-04-19 21:09:00,
2013-04-19 17:24:00,70.9,60.0,29.65,SE,143,5.0,15.0,68,0.00,,,0.00,weatherlink.com 1.10,2013-04-19 21:24:00,
2013-04-19 17:39:00,71.2,59.0,29.64,West,266,2.0,21.0,66,0.00,,,0.00,weatherlink.com 1.10,2013-04-19 21:39:00,
2013-04-19 17:54:00,71.5,59.0,29.63,SE,125,0.0,12.0,66,0.00,,,0.00,weatherlink.com 1.10,2013-04-19 21:54:00,
2013-04-19 18:09:00,71.6,59.0,29.62,ESE,107,1.0,13.0,65,0.00,,,0.00,weatherlink.com 1.10,2013-04-19 22:09:00,
2013-04-19 18:24:00,71.3,60.0,29.61,SE,135,6.0,14.0,67,0.00,,,0.00,weatherlink.com 1.10,2013-04-19 22:24:00,
2013-04-19 18:39:00,69.9,60.0,29.58,ESE,109,4.0,13.0,72,0.00,,,0.00,weatherlink.com 1.10,2013-04-19 22:39:00,
2013-04-19 18:55:00,69.1,61.0,29.58,ESE,105,4.0,15.0,74,0.00,,,0.00,weatherlink.com 1.10,2013-04-19 22:55:00,
2013-04-19 19:09:00,68.7,60.0,29.58,East,90,17.0,17.0,74,0.00,,,0.00,weatherlink.com 1.10,2013-04-19 23:09:00,
2013-04-19 19:24:00,68.5,60.0,29.62,SE,132,2.0,8.0,75,0.00,,,0.00,weatherlink.com 1.10,2013-04-19 23:24:00,
2013-04-19 19:39:00,68.3,60.0,29.62,SE,146,6.0,10.0,75,0.00,,,0.00,weatherlink.com 1.10,2013-04-19 23:39:00,
2013-04-19 19:54:00,68.1,60.0,29.63,SE,136,3.0,10.0,76,0.00,,,0.00,weatherlink.com 1.10,2013-04-19 23:54:00,
2013-04-19 20:09:00,67.8,60.0,29.62,SSE,147,6.0,10.0,77,0.00,,,0.00,weatherlink.com 1.10,2013-04-20 00:09:00,
2013-04-19 20:24:00,67.6,61.0,29.61,SSW,196,7.0,11.0,78,0.00,,,0.00,weatherlink.com 1.10,2013-04-20 00:24:00,
2013-04-19 20:39:00,67.4,60.0,29.60,SSW,194,4.0,9.0,78,0.00,,,0.00,weatherlink.com 1.10,2013-04-20 00:39:00,
2013-04-19 20:54:00,67.2,61.0,29.59,East,90,5.0,11.0,79,0.00,,,0.00,weatherlink.com 1.10,2013-04-20 00:54:00,
2013-04-19 21:09:00,67.1,60.0,29.59,ENE,76,0.0,9.0,79,0.00,,,0.00,weatherlink.com 1.10,2013-04-20 01:09:00,
2013-04-19 21:24:00,67.0,61.0,29.59,East,94,5.0,14.0,80,0.00,,,0.00,weatherlink.com 1.10,2013-04-20 01:24:00,
2013-04-19 21:39:00,67.2,61.0,29.58,SSE,149,4.0,12.0,79,0.00,,,0.00,weatherlink.com 1.10,2013-04-20 01:39:00,
2013-04-19 21:54:00,67.4,60.0,29.58,SE,130,0.0,14.0,78,0.00,,,0.00,weatherlink.com 1.10,2013-04-20 01:54:00,
2013-04-19 22:09:00,67.4,60.0,29.57,SSE,149,3.0,15.0,78,0.00,,,0.00,weatherlink.com 1.10,2013-04-20 02:09:00,
2013-04-19 22:24:00,67.2,61.0,29.56,SSE,153,2.0,10.0,79,0.00,,,0.00,weatherlink.com 1.10,2013-04-20 02:24:00,
2013-04-19 22:39:00,67.3,61.0,29.55,SSE,157,1.0,10.0,79,0.00,,,0.00,weatherlink.com 1.10,2013-04-20 02:39:00,
2013-04-19 22:54:00,67.2,61.0,29.54,SE,133,6.0,10.0,79,0.00,,,0.00,weatherlink.com 1.10,2013-04-20 02:54:00,
2013-04-19 23:09:00,66.5,61.0,29.54,ESE,117,7.0,13.0,82,0.00,,,0.00,weatherlink.com 1.10,2013-04-20 03:09:00,
2013-04-19 23:24:00,65.5,61.0,29.54,ESE,105,2.0,13.0,86,0.02,,,0.02,weatherlink.com 1.10,2013-04-20 03:24:00,
2013-04-19 23:39:00,63.7,61.0,29.59,SSW,204,6.0,11.0,90,0.16,,,0.16,weatherlink.com 1.10,2013-04-20 03:39:00,
2013-04-19 23:54:00,62.3,59.0,29.58,WSW,241,0.0,10.0,89,0.17,,,0.17,weatherlink.com 1.10,2013-04-20 03:54:00,